Location: ?ih�tka
(50.5020°N, 14.9357°E)
Time: 22:30:12
(UTC+00:00)

Daily predictions for brighter satellites

Satellite Brightness Start Highest point End
(mag) Time Altitude Azimuth Time Altitude Azimuth Time Altitude Azimuth
PSLV R/B 4.0 17:19:37 10° NNE 17:23:50 87° ESE 17:28:02 10° SSW
In-Cosmos 22 4.2 17:22:33 10° N 17:27:48 58° ENE 17:33:06 10° SSE
NOSS 3-2 (A) 4.2 17:21:22 10° NW 17:28:46 86° SW 17:37:11 10° SE
Cosmos 1048 Rocket 4.1 17:24:40 10° NNW 17:29:59 66° ENE 17:35:20 10° SE
ARGOS 3.6 17:25:21 10° SE 17:30:22 43° ENE 17:35:26 10° N
NOSS 2-2 (C) 3.1 17:27:10 10° SW 17:30:41 81° SE 17:34:44 10° NE
CZ-2C R/B 4.0 17:27:16 10° NE 17:31:10 19° E 17:35:04 10° SE
Cosmos 2082 Rocket 3.9 17:31:17 10° N 17:35:07 18° NNE 17:38:56 10° ENE
Cosmos 1891 Rocket 4.5 17:31:10 10° S 17:37:08 59° E 17:43:04 10° NNE
Cosmos 1975 Rocket 3.9 17:35:05 10° NNW 17:39:19 54° W 17:43:31 10° S
Cosmos 2151 Rocket 4.0 17:35:47 10° SSE 17:39:58 40° E 17:44:12 10° NNE
Lacrosse 5 rocket 2.7 17:36:26 10° WNW 17:40:25 35° N 17:44:34 10° ENE
Cosmos 494 Rocket 4.1 17:37:47 10° NNW 17:43:00 57° ENE 17:48:11 10° SE
HJ-1C 3.3 17:41:49 10° SSE 17:45:04 62° ENE 17:48:21 10° N
COSMO-SKYMED 1 3.5 17:44:33 10° N 17:48:49 53° WNW 17:53:02 10° SSW
Nadezhda 4 Rocket 4.0 17:46:00 10° N 17:52:07 64° ENE 17:58:11 10° SSE
Cosmos 1805 4.3 17:50:02 10° SE 17:53:17 25° E 17:56:33 10° NNE
Ariane Rocket 3.5 17:48:50 10° SE 17:53:32 40° ENE 17:58:16 10° N
H-2A R/B 2.0 17:49:25 10° SSE 17:54:26 80° ENE 17:59:36 10° NNW
Cosmos 1269 Rocket 4.5 17:49:21 10° NNW 17:54:26 43° ENE 17:59:05 12° SE
SL-08 RB Rocket 4.0 17:51:11 10° SE 17:55:31 45° ENE 17:59:51 10° N
OBJECT-B 2.6 17:55:36 15° ENE 17:56:16 15° ENE 17:58:15 10° NNE
SJ 16-02 4.2 17:53:53 10° W 17:56:55 18° NW 17:59:57 10° N
Exosat Rocket 4.0 17:54:08 10° S 17:58:59 37° ESE 18:03:36 10° NE
USA 116 3.6 17:55:29 10° NNE 17:59:07 81° ESE 18:03:11 10° SSW
Cosmos 2263 Rocket 3.6 17:54:59 10° WSW 18:00:13 40° NW 18:05:31 10° NNE
COSMOS 2406 3.8 17:56:21 10° NNW 18:01:44 41° NE 18:05:51 16° ESE
KORONAS-FOTON 4.0 17:57:57 10° N 18:01:50 53° ENE 18:05:40 10° SSE
Cosmos 1844 Rocket 2.6 17:58:55 10° SSW 18:04:25 66° ESE 18:09:59 10° NE
Cosmos 1707 3.9 18:00:45 10° NNW 18:04:26 46° W 18:08:06 10° SSW
Cosmos 1626 3.1 18:02:48 10° NNE 18:06:01 27° ENE 18:07:28 21° ESE
Cosmos 372 Rocket 4.3 18:01:04 10° SSW 18:06:17 71° WNW 18:11:31 10° NNE
NOSS 3-2 (C) 4.2 17:59:35 10° NW 18:07:00 81° SW 18:15:26 10° SE
Cosmos 2278 Rocket 3.6 18:09:59 16° E 18:09:59 16° E 18:12:30 10° ENE
IRS-1A Rocket 4.5 18:05:58 10° SE 18:11:44 59° ENE 18:17:26 10° N
Cosmos 1844 3.7 18:06:17 10° SSW 18:11:52 61° ESE 18:17:26 10° NE
Cosmos 2034 Rocket 4.0 18:05:39 10° S 18:11:58 73° E 18:18:17 10° NNE
Meteor 2-5 Rocket 3.9 18:06:49 10° N 18:12:24 54° ENE 18:18:02 10° SSE
ISS -3.7 18:09:27 10° W 18:12:50 82° NNW 18:14:49 23° ENE
NOSS 3-4 (A) 3.9 18:08:08 10° S 18:13:25 35° ESE 18:19:01 10° NE
USA 186 1.9 18:11:03 16° SSE 18:13:25 53° ENE 18:16:40 10° N
NOSS 5 (C) 4.3 18:10:23 10° NW 18:13:28 87° NE 18:15:45 21° SE
NOSS 3-4 (C) 3.9 18:08:15 10° S 18:13:32 35° ESE 18:19:07 10° NE
Meteor 1-24 Rocket 4.1 18:09:38 10° N 18:14:58 45° ENE 18:19:24 15° SE
Lacrosse 4 Rocket 2.8 18:11:43 10° NNW 18:14:59 22° NE 18:16:33 18° ENE
Meteor 1-12 Rocket 4.5 18:09:34 10° SSW 18:15:26 78° WNW 18:21:14 10° N
Meteor 2-13 Rocket 4.4 18:10:32 10° N 18:16:41 66° ENE 18:22:46 10° SSE
Cosmos 1300 Rocket 4.1 18:16:18 10° SSW 18:20:41 63° WNW 18:25:07 10° N
Okean 1 Rocket 3.2 18:19:28 10° S 18:23:50 52° E 18:28:12 10° NNE
SL-14 R/B 3.8 18:21:25 10° N 18:25:08 39° ENE 18:26:27 29° ESE
CENTAUR R/B 3.4 18:18:04 10° NW 18:26:01 71° SW 18:34:45 10° SSE
Resurs 01 Rocket 2.7 18:25:52 24° E 18:26:52 26° ENE 18:30:35 10° N
Cosmos 1833 Rocket 3.1 18:21:48 10° NNW 18:27:16 46° NE 18:30:11 25° ESE
Cosmos 2298 Rocket 4.4 18:22:15 10° SSW 18:27:34 70° WNW 18:32:55 10° NNE
Cosmos 1766 3.3 18:30:58 10° S 18:34:49 57° E 18:38:43 10° NNE
Okean 2 Rocket 4.3 18:31:00 10° SSW 18:35:18 45° WNW 18:39:37 10° N
ATLAS 2AS CENTAUR R/B 3.2 18:28:24 10° SSW 18:35:59 51° ESE 18:43:31 10° NE
ATLAS 3B R/B 2.8 18:31:43 10° NW 18:38:32 67° NE 18:42:34 27° ESE
Cosmos 1634 Rocket 4.0 18:33:43 10° SSE 18:39:42 55° E 18:45:45 10° NNE
Abrixas rocket 3.6 18:39:42 10° W 18:42:02 23° SSW 18:42:11 23° SSW
SPOT 3 Rocket 3.8 18:40:10 30° SE 18:42:24 49° ENE 18:47:22 10° N
ARIANE 5 R/B 3.9 18:42:32 22° ENE 18:42:32 22° ENE 18:45:52 10° N
CREW DRAGON DEMO-1 DEB 4.4 18:41:11 10° W 18:43:46 25° SSW 18:44:16 24° SSW
Cosmos 1125 Rocket 3.7 18:42:53 10° SSW 18:48:12 73° WNW 18:53:33 10° NNE
Resurs 1-3 3.6 18:48:54 40° SE 18:50:12 59° ENE 18:54:33 10° N
SJ-6B 2.8 18:48:31 27° S 18:50:27 77° WSW 18:54:16 10° NNW
Cosmos 1892 Rocket 3.6 18:46:15 10° N 18:50:32 54° ENE 18:51:25 45° ESE
Cosmos 2195 Rocket 4.5 18:47:40 10° N 18:53:57 84° W 19:00:07 10° S
Cosmos 1674 4.2 18:52:24 10° NNW 18:55:59 37° W 18:59:32 10° SSW
Cosmos 2026 Rocket 4.0 18:50:25 10° N 18:56:51 89° E 19:02:16 15° S
Cosmos 1092 Rocket 4.2 18:50:51 10° NNW 18:57:00 73° W 19:03:11 10° S
Cosmos 2285 Rocket 4.1 18:52:36 10° SSW 18:58:57 81° WNW 19:05:22 10° NNE
MOS 1 Rocket 4.4 18:57:38 10° N 19:01:47 41° WNW 19:05:49 10° SW
FREGAT/IRIS 3.8 19:04:41 36° WNW 19:04:41 36° WNW 19:06:48 10° NNW
Cosmos 1428 Rocket 4.5 18:59:06 10° N 19:05:24 85° W 19:10:06 18° S
TSX-5 4.0 19:06:06 10° SSW 19:10:05 90° WSW 19:15:18 10° NNE
CZ-2C R/B 2.8 19:06:29 10° NNE 19:12:05 80° WNW 19:17:42 10° SSW
Cosmos 1340 Rocket 2.7 19:15:11 81° SSW 19:15:22 88° W 19:19:25 10° NNE
Cosmos 2279 Rocket 3.9 19:12:59 29° SSE 19:16:13 65° E 19:22:26 10° NNE
Cosmos 1733 3.9 19:13:48 13° SSW 19:17:06 54° WNW 19:20:52 10° N
MetOp-B 4.2 19:17:29 52° E 19:18:06 55° ENE 19:23:20 10° N
Cosmos 2098 Rocket 3.9 19:13:26 10° N 19:20:13 59° ENE 19:21:19 51° ESE
Lacrosse 5 rocket 2.0 19:15:59 10° NW 19:20:18 49° NNE 19:20:43 47° NE
Cosmos 2082 Rocket 2.2 19:14:44 10° NNW 19:20:21 64° ENE 19:21:17 55° ESE
DMSP B5D2-2 4.2 19:16:37 10° NNE 19:21:56 75° WNW 19:27:12 10° SSW
BREEZE-M R/B 3.7 19:18:06 10° WSW 19:24:25 57° SW 19:24:25 57° SW
Spot 2 Rocket 3.9 19:25:15 44° ENE 19:25:15 44° ENE 19:29:46 10° N
OBJECT-B 2.2 19:28:48 38° WNW 19:28:48 38° WNW 19:31:26 10° NNW
Cosmos 2142 Rocket 4.4 19:24:37 15° S 19:29:58 90° E 19:36:13 10° N
Ariane Rocket 4.5 19:28:06 11° SSW 19:32:33 34° W 19:37:11 10° NNW
Cosmos 1626 4.0 19:38:05 10° NNW 19:41:12 26° W 19:42:02 24° WSW
Terra 3.5 19:42:51 22° NE 19:42:51 22° NE 19:45:16 10° N
Okean 1-7 Rocket 3.9 19:37:10 10° NNW 19:41:44 66° W 19:41:50 65° WSW
Cosmos 1626 Rocket 4.3 19:37:19 10° N 19:40:32 44° NNE 19:40:32 44° NNE
COSMOS 2406 4.1 19:40:45 10° NW 19:46:05 43° WSW 19:47:55 33° SSW
Cosmos 1455 Rocket 3.8 19:47:18 49° N 19:47:18 49° N 19:50:34 10° N
Cosmos 407 Rocket 4.4 19:42:14 10° NNW 19:46:14 36° NE 19:46:14 36° NE
SPOT 1/Viking Rocket 3.8 19:48:44 56° NE 19:48:44 56° NE 19:53:10 10° N
ISS -1.3 19:46:23 10° WNW 19:47:47 23° WNW 19:47:47 23° WNW
ATLAS CENTAUR R/B 3.8 19:50:05 10° N 19:51:16 12° N 19:51:16 12° N
Cosmos 2278 Rocket 2.1 19:51:32 69° SSW 19:52:16 90° WSW 19:57:58 10° NNE
Lacrosse 4 Rocket 2.5 19:49:58 10° NW 19:52:52 42° WNW 19:52:52 42° WNW
Cosmos 909 Rocket 3.9 19:52:47 10° NW 19:59:21 78° SW 19:59:55 72° S
Cosmos 2266 Rocket 3.7 19:54:20 10° N 20:00:25 88° E 20:00:33 86° SE
Resurs 01 Rocket 2.6 20:03:26 42° W 20:03:26 42° W 20:07:27 10° NNW
NOSS 3-4 (A) 3.8 19:58:02 10° WSW 20:03:58 61° NW 20:10:26 10° NE
NOSS 3-4 (C) 3.8 19:58:09 10° WSW 20:04:04 62° NW 20:10:32 10° NE
Cosmos 614 Rocket 4.5 20:02:42 10° NNW 20:06:44 53° N 20:06:44 53° N
Cosmos 1833 Rocket 3.7 20:05:58 10° NW 20:11:07 37° WSW 20:11:54 35° SW
Cosmos 2251 Rocket 4.1 20:08:47 10° NNW 20:13:44 53° W 20:13:44 53° W
ERS-1 Rocket 3.9 20:17:40 43° N 20:17:40 43° N 20:21:06 10° N
ARIANE 5 R/B 4.1 20:20:05 35° NW 20:20:05 35° NW 20:22:54 10° NNW
ATLAS 2AS CENTAUR R/B 3.5 20:19:09 10° WSW 20:27:02 60° NW 20:34:44 10° NE
ATLAS 3B R/B 3.6 20:22:44 10° NW 20:28:56 37° WSW 20:29:50 36° SW
SPOT 5 4.0 20:33:48 46° N 20:33:48 46° N 20:37:31 10° NNW
NOSS 3-1 (C) 4.5 20:42:39 10° NW 20:49:23 47° NNE 20:50:02 46° NE
Lacrosse 5 rocket 4.1 20:55:12 10° WNW 20:56:20 17° WNW 20:56:20 17° WNW
Cosmos 2082 Rocket 4.0 20:59:30 10° NW 21:03:08 24° W 21:03:08 24° W
COSMOS 2455 4.4 21:14:36 28° NNE 21:14:36 28° NNE 21:17:23 10° NNE
Terra 4.0 21:21:44 22° NNW 21:21:44 22° NNW 21:23:33 10° NNW
Cosmos 2278 Rocket 4.3 21:33:01 11° W 21:37:09 23° NW 21:41:38 10° NNE
USA 229 DEB 4.5 21:43:38 10° NW 21:49:03 52° NNW 21:49:03 52° NNW
USA 229 4.5 21:43:44 10° NW 21:49:09 51° NNW 21:49:09 51° NNW
Cosmos 2227 Rocket 4.3 22:08:39 10° NNW 22:11:40 21° NNE 22:11:40 21° NNE
ATLAS 2AS CENTAUR R/B 4.4 22:12:35 10° WNW 22:19:35 33° NNW 22:26:20 10° NE
Cosmos 1943 Rocket 4.3 22:24:03 21° NNE 22:24:03 21° NNE 22:25:58 10° NNE
CZ-4C R/B 4.0 22:45:17 30° N 22:45:17 30° N 22:50:03 10° NE
Cosmos 2297 Rocket 4.3 22:54:13 10° NNW 22:56:26 23° N 22:56:26 23° N
Cosmos 2369 Rocket 4.2 23:10:31 23° N 23:10:31 23° N 23:13:04 10° NNE
Resurs 1-4 Rocket 4.4 23:43:57 10° NE 23:45:52 19° NE 23:45:52 19° NE
SL-16 R/B 3.7 23:50:37 38° NNE 23:50:37 38° NNE 23:54:42 10° N
CZ-2D R/B 4.3 23:50:12 10° NE 23:52:17 20° NE 23:52:17 20° NE
